Location: *
(48.8489°N, 2.3218°E)
Time: 15:07:43
(UTC+00:00)

Cosmos 2366 rocket - Pass Details

Date: 23 August 2019
Orbit: 956 x 997 km, 82.9° (Epoch: 16 September)

Event Time Altitude Azimuth Distance (km) Brightness Sun altitude
Rises 23:28:44 0° 348° (NNW) 3,678 8.2 -29.6°
Reaches altitude 10° 23:31:16 10° 345° (NNW) 2,733 7.2 -29.7°
Maximum altitude 23:37:25 62° 267° (W) 1,099 4.1 -29.8°
Enters shadow 23:37:27 62° 265° (W) 1,099 4.1 -29.8°
